GFSMA_prec_cloud_141.txt.gz
Cloud_Cover
94 100 63 24 44 37 49 85 95 100 100 100 100 100 100 100 100 100 100 100 100 100 100 100 100 100 100 100 100 90 81 5 0 2 5 15 10 100 43 100 100 100 100
89 35 79 100 100 36 24 100 34 83 100 100 100 100 100 100 100 100 100 100 100 100 100 100 100 100 98 100 100 100 98 94 5 3 2 9 76 24 100 19 100 100 100
84 8 99 100 100 82 100 100 49 73 71 40 100 100 100 100 100 100 100 100 100 100 100 100 100 100 94 63 100 100 100 24 5 4 4 2 6 5 81 5 70 100 100
84 95 100 96 100 100 98 6 1 58 98 100 100 100 100 100 100 100 100 100 100 100 100 100 100 99 100 94 100 100 99 5 5 5 5 4 5 6 11 91 41 67 99
32 21 32 92 94 39 4 3 0 2 16 86 100 100 100 100 100 100 100 100 100 100 100 100 100 100 100 100 100 100 100 68 69 88 10 68 5 5 52 17 88 90 75
5 5 8 35 72 100 94 27 5 2 1 5 94 100 100 100 100 100 100 100 100 100 100 100 100 100 100 100 100 100 100 100 98 97 100 60 30 5 6 5 5 50 96
92 43 54 60 99 66 100 100 94 20 0 0 96 100 100 100 100 100 100 100 100 100 100 100 100 100 100 100 100 100 100 100 100 100 100 62 100 95 67 5 5 5 5
100 100 100 100 59 30 5 28 97 100 100 6 5 91 100 100 100 100 100 100 100 100 100 100 100 100 100 100 100 100 100 100 100 100 100 52 12 100 100 92 50 10 5
4 30 94 100 100 100 93 6 5 5 57 16 5 40 99 100 100 100 100 100 100 100 100 100 100 100 100 100 100 100 100 100 99 95 100 100 86 100 100 100 86 67 0
0 3 7 62 100 90 85 94 94 95 92 28 26 34 90 79 100 100 100 100 100 100 100 100 100 100 100 100 100 100 100 100 100 100 100 100 100 100 100 100 94 95 5
5 5 5 5 90 100 100 100 100 100 100 100 100 100 36 22 99 94 100 100 100 100 100 100 100 100 100 100 100 100 100 99 100 100 100 100 100 100 100 100 100 100 42
5 5 6 74 81 100 100 100 100 100 100 100 100 100 100 100 99 100 99 100 100 100 100 16 89 93 96 100 100 100 100 91 100 100 100 100 100 100 100 100 100 100 100
5 5 5 52 93 100 100 98 100 100 100 100 100 100 100 100 100 100 100 100 86 100 12 100 84 3 34 100 100 100 100 100 98 87 100 100 100 100 100 100 100 100 100
6 5 5 5 12 6 7 98 100 100 100 100 100 100 100 100 100 100 100 100 100 98 100 99 23 10 5 97 100 100 100 100 96 67 75 100 100 100 100 100 100 100 100
29 5 5 8 5 5 5 90 100 100 100 100 100 100 100 100 100 100 100 100 100 100 99 8 60 100 53 0 20 78 98 100 100 73 100 100 70 100 100 100 100 100 100
36 42 5 13 5 5 5 5 92 54 86 90 96 100 100 100 100 99 100 100 100 100 100 100 82 98 5 4 18 3 5 18 100 16 49 100 100 100 100 100 100 100 100
68 5 29 26 61 23 5 18 78 96 96 59 75 100 100 99 92 90 100 100 100 100 100 100 100 100 100 100 95 33 5 8 74 94 21 100 100 100 100 100 100 100 100
5 56 57 66 72 36 5 37 96 61 77 92 96 83 98 96 83 100 100 100 100 100 100 100 100 100 100 100 100 6 0 1 5 100 90 100 100 100 100 100 100 100 100
5 51 94 94 87 76 50 78 100 99 100 94 87 92 82 92 100 89 99 98 100 100 100 100 100 100 100 100 100 100 60 2 0 9 71 100 100 100 100 100 100 100 100
5 84 100 100 100 100 100 78 84 77 65 96 96 100 98 100 100 100 98 98 100 99 100 100 100 100 100 100 100 100 100 100 23 60 84 100 100 100 100 100 100 100 100
8 76 100 100 100 100 96 97 91 48 76 100 99 100 100 100 100 100 100 97 100 100 100 100 100 100 100 100 100 100 100 100 99 99 99 99 100 99 100 100 100 100 100
100 8 87 100 100 80 100 100 100 100 100 100 100 83 100 100 100 94 100 100 100 100 100 100 100 100 100 100 100 100 100 100 100 100 100 100 100 100 100 100 100 100 100
61 57 87 100 99 100 100 100 100 100 100 100 77 99 95 100 72 98 100 100 100 100 100 100 100 100 100 100 100 100 100 100 100 100 100 100 100 100 100 100 100 100 100
91 100 100 100 100 100 100 100 100 97 100 100 100 100 96 100 100 100 100 100 100 100 100 100 100 100 100 100 100 100 100 100 100 100 100 100 100 100 100 100 100 100 100
64 100 100 100 100 100 100 100 100 99 100 100 100 100 100 100 100 100 100 100 100 100 100 100 100 100 100 100 100 100 100 100 100 100 100 100 100 100 100 100 100 100 100
99 100 100 100 100 100 100 100 99 98 100 100 100 100 100 100 100 100 100 100 100 100 100 100 100 100 100 100 100 100 100 100 100 100 100 100 100 100 100 100 100 100 100

GFSMA_prec_cloud_144.txt.gz
Cloud_Cover
52 100 100 100 100 100 75 79 63 60 85 100 100 100 100 100 100 100 100 100 100 100 91 100 100 100 100 100 100 100 100 100 100 35 5 5 19 42 69 100 100 100 100
14 5 41 91 100 100 100 39 13 69 66 30 95 82 100 100 100 100 100 100 100 100 100 100 100 100 100 100 100 95 91 100 100 88 97 7 6 81 26 100 88 100 100
0 0 0 8 45 100 100 59 27 4 56 93 36 41 100 100 100 100 100 100 100 100 100 100 100 100 100 100 100 100 100 100 100 100 21 59 8 15 100 36 100 100 100
0 0 2 41 39 48 68 76 14 3 0 14 90 68 80 99 100 100 100 100 100 100 100 100 100 100 100 100 100 100 100 100 100 100 88 21 14 78 61 74 16 99 99
0 0 0 0 0 0 0 0 2 5 0 2 6 77 100 100 100 100 100 100 100 100 100 100 100 100 100 100 100 100 100 100 100 100 100 10 32 20 10 31 5 5 78
0 5 4 3 2 0 0 0 1 0 6 58 4 15 80 91 100 100 100 100 100 100 100 100 100 100 100 100 100 100 100 100 100 100 100 99 75 71 54 84 13 5 95
1 0 0 0 1 0 5 1 3 1 0 0 16 3 5 97 93 100 100 100 100 100 100 100 100 100 100 100 100 100 92 100 100 100 100 100 99 100 90 8 5 5 5
20 5 2 0 0 0 0 0 26 83 18 0 28 53 64 39 100 97 100 100 100 100 100 100 100 100 100 100 100 100 84 95 100 100 100 100 100 91 98 88 7 66 5
5 14 6 25 4 5 5 7 13 0 48 64 16 92 94 69 65 91 100 100 100 100 100 100 100 100 100 99 100 100 100 100 100 100 100 100 100 100 85 100 98 55 31
5 5 5 5 5 5 73 96 100 96 91 57 20 100 100 98 95 52 14 78 100 100 100 100 100 100 100 100 100 100 100 100 86 93 100 100 100 100 100 100 100 52 72
5 5 5 5 5 5 77 74 85 100 100 99 100 100 53 80 100 87 54 3 50 100 77 100 29 100 100 100 100 100 100 100 100 100 100 96 100 100 100 100 100 100 100
9 5 6 5 5 5 5 13 99 100 100 100 100 100 100 100 100 100 100 100 74 64 95 100 100 100 100 100 100 94 100 100 100 100 29 59 100 100 100 100 100 100 100
72 15 45 86 13 5 5 93 100 100 100 100 100 100 100 100 100 100 100 100 98 35 38 79 98 84 18 89 100 82 100 100 100 100 85 100 100 100 100 100 100 100 100
100 100 98 30 6 5 5 14 58 9 12 53 91 100 100 100 100 100 100 100 100 100 99 10 1 76 87 0 100 49 33 31 100 100 100 100 100 100 100 100 100 100 100
74 88 8 5 5 5 5 5 5 5 5 5 8 47 85 91 82 99 100 100 100 100 100 100 98 38 20 18 36 90 9 0 92 100 100 100 100 100 100 100 100 100 100
5 5 5 5 5 5 5 14 5 5 5 5 52 53 41 22 33 82 79 92 100 100 100 100 100 100 100 83 11 5 48 5 2 78 88 100 100 100 100 100 100 100 100
6 5 5 5 5 5 6 81 5 5 72 68 18 5 53 97 100 98 93 100 100 100 100 100 100 100 100 99 72 8 3 32 5 4 2 100 100 100 100 100 100 99 100
5 5 5 5 5 5 52 19 5 15 71 94 96 71 87 75 73 100 93 76 99 96 100 100 100 100 100 100 100 100 80 80 5 69 5 1 86 100 99 100 100 100 100
5 5 5 5 36 66 11 40 68 60 5 97 95 77 88 99 100 96 99 91 96 96 100 100 98 95 100 100 100 100 100 100 89 84 49 94 100 100 100 100 100 100 100
7 5 5 7 74 91 100 33 20 36 41 86 100 99 100 100 100 99 100 100 88 92 93 100 100 100 100 100 100 100 100 100 100 99 100 100 100 100 100 100 100 100 100
6 5 30 62 70 100 85 93 81 85 93 100 100 94 100 99 100 100 98 99 81 99 99 100 100 100 100 100 100 100 100 100 100 100 100 100 100 100 100 100 100 100 100
5 5 36 67 5 94 98 74 100 96 66 99 100 100 100 100 45 98 100 100 100 100 100 100 100 100 100 100 100 100 100 100 100 100 100 100 100 100 100 100 100 100 100
12 5 5 5 44 98 99 99 100 100 75 96 96 100 100 100 100 59 98 92 95 100 100 100 100 100 100 100 100 100 100 100 100 100 100 100 100 100 100 100 100 100 100
62 60 10 5 21 100 99 100 100 100 93 100 100 100 100 100 100 100 100 97 100 100 100 100 100 100 100 100 100 100 100 100 100 100 100 100 100 100 100 100 100 100 100
81 76 66 52 19 100 100 100 100 100 93 99 100 100 100 100 100 100 100 100 100 100 100 100 100 100 100 100 100 100 98 100 100 100 100 100 100 100 100 100 100 100 100
96 100 100 99 100 100 100 100 100 100 100 100 100 100 100 100 100 100 100 100 100 100 100 100 100 100 100 100 100 100 100 100 99 100 100 100 100 100 100 100 100 100 100

GFSMA_prec_cloud_147.txt.gz
Cloud_Cover
100 99 45 1 2 4 8 50 100 100 94 83 100 59 100 100 100 100 100 100 100 100 100 100 100 100 100 100 100 100 100 100 100 99 72 93 9 99 5 7 39 100 100
100 100 71 2 0 1 5 5 22 92 99 100 96 100 82 100 100 100 100 100 100 100 100 100 100 100 100 100 100 100 100 100 100 100 100 100 70 8 26 5 58 44 100
0 0 0 0 0 0 0 0 2 0 1 8 92 87 91 96 100 100 100 100 100 100 100 100 100 100 100 100 100 100 100 100 100 100 100 100 89 5 15 19 24 93 87
0 0 0 0 0 0 0 0 0 0 0 4 5 26 47 100 100 100 100 100 100 100 100 100 100 100 100 100 100 100 100 100 100 100 100 100 100 97 8 47 82 37 62
4 2 0 0 0 0 0 0 0 0 0 5 1 5 80 95 100 100 100 100 100 100 100 100 100 100 100 100 100 100 100 100 100 100 100 100 100 100 94 8 14 11 73
5 5 5 0 0 0 1 0 0 1 38 0 0 2 5 21 98 100 100 100 100 100 100 100 100 100 100 100 100 100 100 100 100 100 100 100 100 100 100 47 53 75 21
5 0 0 0 0 0 0 0 0 0 0 4 16 0 0 0 4 95 100 98 100 100 100 100 100 100 100 100 100 100 100 100 100 100 100 100 100 100 100 49 99 100 100
48 8 2 0 0 0 0 0 0 0 0 0 22 80 57 4 0 0 29 43 92 100 100 100 100 100 100 100 100 100 100 100 100 100 100 100 100 100 100 100 100 100 100
5 3 5 5 5 5 5 5 5 5 18 2 30 77 66 51 61 0 0 4 5 52 92 100 100 100 100 100 100 100 100 100 100 100 100 100 100 100 100 100 100 100 100
5 5 5 5 5 5 5 5 5 5 23 59 21 100 98 93 98 56 0 0 0 5 5 68 99 100 100 100 100 100 100 100 100 100 100 100 100 100 100 100 100 100 100
5 5 5 5 5 5 7 6 20 8 11 51 100 100 47 47 98 100 85 2 0 0 2 5 6 94 76 100 100 100 100 100 100 100 100 100 100 100 100 100 100 100 100
5 5 5 5 5 5 22 70 99 74 8 7 89 100 100 100 100 100 100 100 98 4 1 0 5 2 47 68 100 100 100 100 100 99 100 100 100 94 45 100 100 100 100
5 5 5 5 9 65 99 94 79 96 62 45 9 8 88 100 100 100 100 100 100 99 93 19 5 1 2 4 93 20 100 100 86 28 76 63 100 100 100 67 100 100 100
28 45 48 47 55 6 61 100 79 5 5 5 5 6 5 11 31 100 100 100 99 99 99 75 74 6 77 1 1 4 28 100 100 100 96 63 4 47 100 100 90 91 99
100 98 100 35 5 6 5 5 5 5 5 5 5 41 5 5 5 5 53 98 100 100 84 88 99 88 45 91 15 1 4 54 89 100 100 100 100 88 88 100 100 100 100
100 68 100 100 44 20 13 33 5 5 5 5 6 5 7 19 13 14 67 99 100 100 100 93 8 40 5 5 0 0 0 0 5 5 50 100 100 100 90 100 100 100 100
79 24 5 5 5 5 15 5 5 5 57 5 5 23 90 88 19 18 78 55 26 87 100 77 16 5 6 5 6 69 26 0 5 11 0 16 49 100 100 100 100 100 100
47 86 71 74 5 8 5 5 5 6 100 99 10 94 97 56 8 27 74 95 85 99 100 100 63 92 100 80 100 100 100 98 45 79 33 4 79 99 100 100 100 100 100
100 100 100 87 99 5 5 35 89 76 20 77 94 93 99 80 63 90 96 100 100 95 100 100 99 88 100 100 100 98 100 100 100 100 100 100 100 100 100 100 100 100 100
100 100 100 80 41 5 5 51 100 98 80 76 98 68 98 91 100 99 95 88 74 68 87 100 98 94 72 94 100 100 100 100 100 100 100 100 100 100 100 100 100 100 100
78 69 5 7 96 26 5 65 61 80 100 100 98 100 100 99 100 100 98 100 92 85 83 100 100 98 90 85 100 100 100 100 100 100 100 100 100 100 100 100 100 100 100
5 5 5 5 5 84 77 27 66 53 100 100 100 100 100 100 91 100 100 100 100 100 100 100 100 100 100 100 100 100 100 100 100 100 100 100 100 100 100 100 100 100 100
6 29 18 10 5 66 92 30 93 84 100 100 100 90 100 100 100 100 100 100 98 100 100 100 100 100 100 100 100 100 100 100 100 100 100 100 100 100 100 100 100 100 100
100 83 54 63 91 100 92 62 63 100 100 100 100 94 100 100 100 100 100 100 71 91 98 98 100 100 100 100 100 100 100 100 100 100 100 100 100 100 100 100 100 100 100
85 98 76 40 71 98 99 100 96 100 100 100 100 100 98 100 100 100 100 100 100 98 100 100 100 100 100 100 100 100 100 100 100 100 100 100 100 100 100 100 100 100 100
73 62 5 39 69 100 100 100 100 100 100 100 100 100 100 100 100 100 100 100 100 100 100 100 100 100 100 100 100 100 100 100 100 100 100 100 100 100 100 100 100 100 99

GFSMA_prec_cloud_150.txt.gz
Cloud_Cover
100 22 90 100 97 94 1 12 0 0 55 70 19 100 100 73 99 100 100 100 100 100 100 100 86 90 100 99 100 87 100 100 100 100 100 58 22 100 100 15 7 61 38
0 0 0 0 0 14 1 0 0 0 1 35 100 100 100 99 94 100 100 100 100 100 100 100 100 55 100 100 100 96 100 100 100 100 100 100 100 100 86 6 58 98 69
5 5 3 0 0 0 0 0 0 0 0 0 2 21 100 100 100 63 100 100 100 100 100 100 100 48 24 51 100 100 100 100 100 100 100 100 100 100 100 100 84 69 100
0 28 58 5 39 41 19 3 0 0 0 12 0 0 5 20 44 95 100 100 100 100 100 100 100 100 96 50 100 100 100 100 100 100 100 100 100 35 100 100 96 24 40
0 0 1 3 45 22 30 4 5 2 0 2 0 0 0 5 16 26 80 100 100 100 100 100 100 100 100 51 100 100 95 100 100 100 100 100 100 100 100 100 100 71 71
0 4 58 24 65 48 91 46 2 0 34 0 0 0 0 0 0 7 8 54 19 59 100 100 100 100 100 100 100 100 100 100 100 100 100 100 100 100 100 100 100 100 26
5 100 100 4 25 30 2 4 72 5 5 0 0 0 0 0 0 0 2 100 100 100 100 100 100 100 100 100 100 100 100 100 100 100 100 100 100 100 100 95 100 100 100
100 100 42 2 0 2 2 4 5 5 5 0 23 97 16 1 0 0 0 21 100 100 100 100 100 100 100 100 100 100 100 100 100 100 100 100 100 100 100 100 100 100 100
100 40 5 5 5 32 60 6 5 5 5 4 74 62 83 68 61 0 0 0 1 46 100 100 100 100 100 100 100 100 100 100 100 100 100 100 100 100 100 100 100 100 100
54 91 100 100 100 100 98 56 5 5 5 36 22 79 99 100 99 57 0 0 0 0 3 63 100 100 100 100 100 100 100 100 100 100 100 100 100 100 100 100 100 100 100
94 100 100 100 100 67 63 99 96 51 5 5 55 63 84 8 64 100 96 30 3 0 0 0 12 95 100 100 100 100 100 100 100 100 100 100 100 100 100 100 100 100 100
70 34 6 90 94 60 30 13 18 5 5 31 77 99 100 100 98 90 100 87 60 5 5 0 1 0 7 67 98 100 100 100 100 100 100 100 100 100 100 100 100 100 100
5 5 5 5 5 5 5 17 86 94 39 10 91 100 100 100 62 62 89 88 84 6 5 4 5 4 2 0 0 11 36 100 100 100 100 100 100 100 100 94 100 100 100
85 94 72 82 44 70 88 91 99 100 69 5 8 17 98 80 33 49 77 100 99 20 5 5 20 4 10 8 2 0 4 17 99 89 100 100 100 100 100 100 44 98 100
100 100 36 7 5 5 49 72 85 93 100 29 5 5 5 5 6 61 99 100 100 100 65 5 5 5 5 5 4 0 0 0 2 5 10 92 100 100 100 100 100 100 100
79 35 49 100 100 100 38 76 22 5 5 9 8 6 9 5 5 5 95 77 20 100 92 5 5 7 55 99 88 75 6 3 0 13 48 54 5 42 100 100 100 100 100
100 100 100 99 5 55 42 6 5 5 37 5 17 89 57 5 5 22 75 35 87 96 98 15 6 40 22 84 100 100 89 100 100 100 96 31 100 100 94 100 100 100 100
100 100 100 100 96 100 100 100 100 100 90 80 79 100 65 84 5 77 100 100 92 98 95 98 92 75 13 40 82 100 74 100 100 100 100 100 100 100 100 100 100 100 100
100 100 93 44 23 42 80 94 98 19 57 75 54 98 95 85 72 97 100 100 83 88 92 97 86 77 66 76 89 64 99 100 100 100 100 100 100 100 100 100 100 100 100
100 100 100 81 5 3 18 19 5 5 5 53 100 100 98 96 100 100 99 98 90 94 99 100 82 78 96 83 80 100 97 100 100 100 100 100 100 100 100 100 100 100 100
5 5 33 5 5 98 81 23 5 5 5 5 39 100 100 100 100 100 100 99 97 92 99 91 92 93 100 100 100 98 100 100 100 100 100 100 100 100 100 100 100 100 100
53 66 58 91 100 100 100 66 5 5 5 10 10 54 100 100 100 100 100 100 100 100 100 100 100 100 100 100 100 100 100 100 100 100 100 100 100 100 100 100 100 100 100
84 100 100 100 100 84 93 73 5 5 10 48 36 17 99 100 100 100 93 100 100 100 100 100 100 100 100 100 100 96 100 100 100 100 100 100 100 100 100 100 100 100 100
100 100 91 100 100 91 100 88 79 10 8 76 86 69 98 100 100 100 100 100 100 100 100 100 100 100 100 100 100 100 100 100 100 100 100 100 100 100 100 100 100 100 100
74 95 99 83 94 93 100 71 92 37 14 41 100 100 100 100 100 100 100 100 100 100 100 100 100 100 100 100 100 100 100 100 100 100 100 100 100 100 100 100 99 100 100
89 90 25 41 54 62 100 85 39 92 100 100 100 100 100 100 100 100 100 100 100 100 96 100 100 100 100 100 100 100 100 100 100 100 100 100 100 100 100 100 83 84 91